This is the latest recevied weather packets stored in our database for station/object KC1BRV. If no packets are shown the sender has not sent any weather packets the latest 10 day(s).
| Time | Temp. | Humidity | Pressure | Rain* | Wind** | Luminosity | Snow |
|---|---|---|---|---|---|---|---|
| 1787867308 | 23.89° C | 78% | 1017.8 hPa | 0 mm | - | 62 W/m² | - |
| 1787867006 | 23.89° C | 78% | 1018 hPa | 0 mm | - | 68 W/m² | - |
| 1787866699 | 23.89° C | 77% | 1017.9 hPa | 0 mm | - | 68 W/m² | - |
| 1787866398 | 23.89° C | 77% | 1018.1 hPa | 0 mm | - | 69 W/m² | - |
| 1787866093 | 23.89° C | 77% | 1018.1 hPa | 0 mm | - | 77 W/m² | - |
| 1787865788 | 23.89° C | 77% | 1018.3 hPa | 0 mm | - | 84 W/m² | - |
| 1787865483 | 24.44° C | 76% | 1018.1 hPa | 0 mm | - | 81 W/m² | - |
| 1787865177 | 24.44° C | 76% | 1018 hPa | 0 mm | - | 96 W/m² | - |
| 1787864869 | 24.44° C | 76% | 1017.8 hPa | 0 mm | - | 115 W/m² | - |
| 1787864569 | 24.44° C | 76% | 1018.1 hPa | 0 mm | - | 112 W/m² | - |
| 1787864263 | 24.44° C | 76% | 1018.3 hPa | 0 mm | - | 98 W/m² | - |
| 1787863957 | 24.44° C | 75% | 1018.4 hPa | 0 mm | - | 90 W/m² | - |
| 1787863656 | 24.44° C | 75% | 1018.3 hPa | 0 mm | - | 91 W/m² | - |
| 1787863354 | 24.44° C | 74% | 1018.1 hPa | 0 mm | - | 95 W/m² | - |
| 1787863051 | 24.44° C | 74% | 1018 hPa | 0 mm | - | 107 W/m² | - |
| 1787862748 | 24.44° C | 74% | 1018.3 hPa | 0 mm | - | 109 W/m² | - |
| 1787862446 | 24.44° C | 73% | 1018.5 hPa | 0 mm | - | 116 W/m² | - |
| 1787862141 | 24.44° C | 73% | 1018.4 hPa | 0 mm | - | 124 W/m² | - |
| 1787861836 | 24.44° C | 72% | 1018.5 hPa | 0 mm | - | 126 W/m² | - |
| 1787861541 | 24.44° C | 70% | 1018.5 hPa | 0 mm | - | 127 W/m² | - |
| 1787861229 | 24.44° C | 71% | 1018.8 hPa | 0 mm | - | 128 W/m² | - |
| 1787860928 | 24.44° C | 70% | 1018.7 hPa | 0 mm | - | 132 W/m² | - |
| 1787860623 | 25° C | 68% | 1018.6 hPa | 0 mm | - | 146 W/m² | - |
| 1787860318 | 25° C | 68% | 1018.8 hPa | 0 mm | - | 158 W/m² | - |
| 1787860013 | 25° C | 67% | 1019 hPa | 0 mm | - | 168 W/m² | - |
* Rain latest hour (hover to see other rain measurements)
** Current wind speed in m/s (hover to see current wind gust speed)